THY69T LTFM-HTDA

Flight info

Callsign THY69T
Flight time 6h 59m
Altitude 31000
Route RATVU1D/35L RATVU UT35 UNEPI/N0454F330 UT35 AYT UM855 TOMBI M855 DASNI/N0455F350 M855 RASDA A16 CVO A727 NABED T55 DEDLI M999 JDW M559 RIBAM G650 RASKA/N0466F340 UG650 DULAB UG650 KONET UM308 TEXOK UM308 GETOL/N0463F350 UT129 ALEMU UN301 MOHAD UN301 WAV/N0464F340 UN301 MOV UM310 UVUKO DCT
Aircraft B38M/M-SADE1E2E3FGHIJ1M3RWXYZ/LB1

Departure

Time 2026-05-06 22:01
Airport İstanbul Airport (LTFM)

Arrival

Time 2026-05-07 05:00
Airport Julius Nyerere International Airport (HTDA)
Time Latitude Longitude Altitude Speed Heading
2026-05-06 20:56 41.26642 28.73432 336 ft 0 kts 71°
2026-05-06 21:49 41.26641 28.73426 332 ft 2 kts 71°
2026-05-06 21:49 41.26635 28.73406 331 ft 2 kts 71°
2026-05-06 21:49 41.26630 28.73386 333 ft 2 kts 71°
2026-05-06 21:50 41.26628 28.73364 332 ft 2 kts 105°
2026-05-06 21:50 41.26632 28.73344 333 ft 2 kts 59°
2026-05-06 21:50 41.26628 28.73336 332 ft 2 kts
2026-05-06 21:50 41.26640 28.73336 335 ft 0 kts 360°
2026-05-06 21:55 41.26644 28.73336 332 ft 1 kts 360°
2026-05-06 21:55 41.26656 28.73336 332 ft 2 kts 359°
2026-05-06 21:56 41.26678 28.73335 335 ft 4 kts 356°
2026-05-06 21:56 41.26711 28.73313 335 ft 7 kts 312°
2026-05-06 21:56 41.26721 28.73257 336 ft 7 kts 271°
2026-05-06 21:56 41.26721 28.73191 336 ft 8 kts 269°
2026-05-06 21:57 41.26720 28.73116 336 ft 9 kts 269°
2026-05-06 21:57 41.26718 28.73033 336 ft 10 kts 268°
2026-05-06 21:57 41.26718 28.72948 336 ft 8 kts 269°
2026-05-06 21:57 41.26717 28.72867 336 ft 9 kts 269°
2026-05-06 21:58 41.26715 28.72790 336 ft 8 kts 268°
2026-05-06 21:58 41.26715 28.72716 336 ft 9 kts 270°
2026-05-06 21:58 41.26715 28.72633 336 ft 10 kts 269°
2026-05-06 21:58 41.26702 28.72554 335 ft 7 kts 240°
2026-05-06 21:59 41.26699 28.72531 333 ft 2 kts 291°
2026-05-06 21:59 41.26723 28.72514 334 ft 3 kts 354°
2026-05-06 21:59 41.26725 28.72514 334 ft 0 kts 360°
2026-05-06 21:59 41.26736 28.72514 336 ft 6 kts 360°
2026-05-06 22:00 41.26918 28.72511 335 ft 57 kts 359°
2026-05-06 22:00 41.27520 28.72500 336 ft 116 kts 359°
2026-05-06 22:00 41.28505 28.72486 334 ft 163 kts 360°
2026-05-06 22:00 41.29724 28.72448 595 ft 180 kts 360°
2026-05-06 22:01 41.31012 28.72416 1135 ft 187 kts 359°
2026-05-06 22:01 41.32291 28.72400 1807 ft 181 kts 360°
2026-05-06 22:01 41.33609 28.72432 2076 ft 199 kts 360°
2026-05-06 22:01 41.35064 28.72465 2248 ft 221 kts 360°
2026-05-06 22:02 41.36612 28.72080 2427 ft 240 kts 329°
2026-05-06 22:02 41.37754 28.70535 3085 ft 236 kts 296°
2026-05-06 22:02 41.38165 28.68390 3471 ft 246 kts 272°
2026-05-06 22:02 41.38147 28.66077 3793 ft 253 kts 270°
2026-05-06 22:03 41.38122 28.63749 4122 ft 254 kts 270°
2026-05-06 22:03 41.38094 28.61381 4533 ft 256 kts 270°
2026-05-06 22:03 41.37999 28.59011 4935 ft 257 kts 259°
2026-05-06 22:03 41.37190 28.56878 5314 ft 264 kts 230°
2026-05-06 22:04 41.35672 28.55484 5730 ft 276 kts 203°
2026-05-06 22:04 41.33755 28.55084 6179 ft 286 kts 180°
2026-05-06 22:04 41.31737 28.55145 6644 ft 292 kts 180°
2026-05-06 22:04 41.29691 28.55188 7082 ft 295 kts 181°
2026-05-06 22:05 41.27625 28.55233 7519 ft 298 kts 180°
2026-05-06 22:05 41.25567 28.55574 7876 ft 299 kts 160°
2026-05-06 22:05 41.23799 28.56927 8277 ft 299 kts 137°
2026-05-06 22:05 41.22263 28.58821 8697 ft 302 kts 135°
2026-05-06 22:06 41.20731 28.60734 9108 ft 303 kts 135°
2026-05-06 22:06 41.19197 28.62669 9523 ft 305 kts 134°
2026-05-06 22:06 41.17661 28.64618 9939 ft 306 kts 134°
2026-05-06 22:06 41.16138 28.66557 10340 ft 307 kts 134°
2026-05-06 22:07 41.14605 28.68513 10731 ft 309 kts 134°
2026-05-06 22:07 41.13036 28.70528 11158 ft 310 kts 131°
2026-05-06 22:07 41.11750 28.72818 11571 ft 309 kts 120°
2026-05-06 22:07 41.10575 28.75233 11993 ft 311 kts 120°
2026-05-06 22:08 41.09407 28.77612 12410 ft 313 kts 120°
2026-05-06 22:08 41.08210 28.80050 12835 ft 315 kts 120°
2026-05-06 22:08 41.07010 28.82493 13277 ft 317 kts 120°
2026-05-06 22:08 41.05799 28.84953 13719 ft 319 kts 120°
2026-05-06 22:09 41.04619 28.87350 14126 ft 321 kts 120°
2026-05-06 22:09 41.03235 28.89685 14497 ft 325 kts 136°
2026-05-06 22:09 41.01324 28.91307 14897 ft 330 kts 158°
2026-05-06 22:09 40.99086 28.91984 15311 ft 332 kts 178°
2026-05-06 22:10 40.96793 28.91895 15735 ft 336 kts 184°
2026-05-06 22:10 40.94445 28.91677 16162 ft 338 kts 185°
2026-05-06 22:10 40.92088 28.91423 16593 ft 341 kts 185°
2026-05-06 22:10 40.89706 28.91148 17017 ft 344 kts 186°
2026-05-06 22:11 40.87321 28.90923 17336 ft 345 kts 179°
2026-05-06 22:11 40.84935 28.91099 17676 ft 348 kts 176°
2026-05-06 22:11 40.82501 28.91291 18017 ft 350 kts 176°
2026-05-06 22:11 40.80059 28.91485 18361 ft 352 kts 176°
2026-05-06 22:12 40.77605 28.91681 18664 ft 354 kts 176°
2026-05-06 22:12 40.75132 28.91880 18974 ft 356 kts 176°
2026-05-06 22:12 40.72669 28.92079 19270 ft 358 kts 176°
2026-05-06 22:12 40.70178 28.92279 19578 ft 360 kts 176°
2026-05-06 22:13 40.67663 28.92481 19888 ft 362 kts 176°
2026-05-06 22:13 40.65993 28.92615 20097 ft 363 kts 177°
2026-05-06 22:13 40.63462 28.92818 20416 ft 365 kts 177°
2026-05-06 22:13 40.60067 28.93090 20702 ft 375 kts 177°
2026-05-06 22:14 40.58290 28.93232 20721 ft 386 kts 177°
2026-05-06 22:14 40.55614 28.93790 20708 ft 400 kts 160°
2026-05-06 22:14 40.53091 28.95435 20797 ft 410 kts 145°
2026-05-06 22:14 40.50647 28.97460 21034 ft 417 kts 146°
2026-05-06 22:15 40.48190 28.99504 21516 ft 418 kts 146°
2026-05-06 22:15 40.45723 29.01581 21892 ft 422 kts 146°
2026-05-06 22:15 40.43253 29.03674 22338 ft 423 kts 145°
2026-05-06 22:15 40.40773 29.05781 22650 ft 427 kts 146°
2026-05-06 22:16 40.38303 29.07883 22969 ft 428 kts 145°
2026-05-06 22:16 40.35789 29.10018 23293 ft 430 kts 146°
2026-05-06 22:16 40.33267 29.12160 23618 ft 432 kts 146°
2026-05-06 22:16 40.30735 29.14309 23894 ft 434 kts 146°
2026-05-06 22:17 40.28214 29.16444 24165 ft 437 kts 146°
2026-05-06 22:17 40.25658 29.18608 24440 ft 439 kts 146°
2026-05-06 22:17 40.23076 29.20793 24723 ft 442 kts 146°
2026-05-06 22:17 40.20484 29.22984 25002 ft 444 kts 146°
2026-05-06 22:18 40.17775 29.24962 25260 ft 447 kts 158°
2026-05-06 22:18 40.14850 29.26353 25575 ft 449 kts 160°
2026-05-06 22:18 40.11904 29.27762 25866 ft 452 kts 160°
2026-05-06 22:18 40.08934 29.29175 26163 ft 456 kts 160°
2026-05-06 22:19 40.05943 29.30597 26455 ft 458 kts 160°
2026-05-06 22:19 40.02981 29.32004 26765 ft 459 kts 160°
2026-05-06 22:19 39.99971 29.33431 27070 ft 459 kts 160°
2026-05-06 22:19 39.96967 29.34854 27380 ft 459 kts 160°
2026-05-06 22:20 39.93951 29.36281 27688 ft 459 kts 160°
2026-05-06 22:20 39.90964 29.37730 28014 ft 459 kts 156°
2026-05-06 22:20 39.88032 29.39367 28341 ft 458 kts 157°
2026-05-06 22:20 39.85120 29.40976 28660 ft 458 kts 157°
2026-05-06 22:21 39.82186 29.42582 28983 ft 458 kts 157°
2026-05-06 22:21 39.79233 29.44191 29234 ft 460 kts 157°
2026-05-06 22:21 39.76271 29.45806 29468 ft 463 kts 157°
2026-05-06 22:21 39.73290 29.47427 29704 ft 465 kts 157°
2026-05-06 22:22 39.70283 29.49061 29942 ft 467 kts 157°
2026-05-06 22:22 39.67316 29.50673 30183 ft 467 kts 157°
2026-05-06 22:22 39.64303 29.52282 30376 ft 467 kts 159°
2026-05-06 22:22 39.61263 29.53788 30583 ft 466 kts 159°
2026-05-06 22:23 39.58268 29.55280 30775 ft 466 kts 159°
2026-05-06 22:23 39.55240 29.56795 30977 ft 466 kts 159°
2026-05-06 22:23 39.52214 29.58308 31186 ft 466 kts 159°
2026-05-06 22:23 39.49178 29.59825 31384 ft 465 kts 159°
2026-05-06 22:24 39.46153 29.61336 31595 ft 465 kts 159°
2026-05-06 22:24 39.43124 29.62846 31805 ft 465 kts 159°
2026-05-06 22:24 39.40141 29.64334 32016 ft 465 kts 159°
2026-05-06 22:24 39.37127 29.65836 32225 ft 464 kts 159°
2026-05-06 22:25 39.34109 29.67336 32414 ft 464 kts 159°
2026-05-06 22:25 39.31098 29.68833 32609 ft 464 kts 159°
2026-05-06 22:25 39.28087 29.70328 32796 ft 464 kts 159°
2026-05-06 22:25 39.25067 29.71828 32981 ft 463 kts 159°
2026-05-06 22:26 39.22051 29.73321 33153 ft 464 kts 159°
2026-05-06 22:26 39.19031 29.74815 33190 ft 464 kts 159°
2026-05-06 22:26 39.13065 29.77767 33166 ft 461 kts 159°
2026-05-06 22:27 39.07050 29.80735 33175 ft 461 kts 159°
2026-05-06 22:27 39.01085 29.83674 33163 ft 461 kts 159°
2026-05-06 22:28 38.95111 29.86612 33173 ft 456 kts 159°
2026-05-06 22:28 38.89199 29.89505 33168 ft 453 kts 160°
2026-05-06 22:29 38.83272 29.92321 33176 ft 454 kts 160°
2026-05-06 22:29 38.77374 29.95127 33166 ft 453 kts 160°
2026-05-06 22:30 38.71464 29.97934 33165 ft 452 kts 160°
2026-05-06 22:30 38.65560 30.00734 33165 ft 452 kts 160°
2026-05-06 22:31 38.59683 30.03515 33164 ft 452 kts 160°
2026-05-06 22:31 38.53769 30.06310 33154 ft 451 kts 160°
2026-05-06 22:32 38.47874 30.09090 33166 ft 452 kts 160°
2026-05-06 22:32 38.42012 30.11850 33154 ft 451 kts 160°
2026-05-06 22:33 38.36100 30.14630 33159 ft 451 kts 160°
2026-05-06 22:33 38.30226 30.17347 33154 ft 451 kts 161°
2026-05-06 22:34 38.24299 30.20076 33161 ft 451 kts 161°
2026-05-06 22:34 38.18421 30.22777 33155 ft 451 kts 161°
2026-05-06 22:35 38.12506 30.25490 33163 ft 451 kts 161°
2026-05-06 22:35 38.06586 30.28200 33158 ft 451 kts 161°
2026-05-06 22:36 38.00683 30.30893 33160 ft 457 kts 162°
2026-05-06 22:36 37.94636 30.33636 33159 ft 465 kts 162°
2026-05-06 22:37 37.88467 30.36429 33162 ft 473 kts 162°
2026-05-06 22:37 37.82245 30.39242 33158 ft 482 kts 162°
2026-05-06 22:38 37.75853 30.42127 33160 ft 490 kts 162°
2026-05-06 22:38 37.69402 30.45032 33155 ft 497 kts 162°
2026-05-06 22:39 37.62870 30.47969 33167 ft 497 kts 162°
2026-05-06 22:39 37.56372 30.50885 33156 ft 497 kts 162°
2026-05-06 22:40 37.49836 30.53812 33170 ft 497 kts 162°
2026-05-06 22:40 37.43305 30.56732 33165 ft 497 kts 162°
2026-05-06 22:41 37.33555 30.61081 33157 ft 497 kts 162°
2026-05-06 22:42 37.27023 30.63988 33152 ft 497 kts 162°
2026-05-06 22:42 37.20498 30.66887 33143 ft 496 kts 162°
2026-05-06 22:43 37.18346 30.67841 33143 ft 496 kts 162°
2026-05-06 22:43 37.14237 30.69663 33136 ft 496 kts 162°
2026-05-06 22:44 37.07764 30.72527 33130 ft 495 kts 162°
2026-05-06 22:44 37.01256 30.75403 33132 ft 495 kts 162°
2026-05-06 22:45 36.94782 30.78259 33128 ft 495 kts 163°
2026-05-06 22:45 36.91465 30.79315 33102 ft 488 kts 178°
2026-05-06 22:45 36.88090 30.79510 33139 ft 486 kts 181°
2026-05-06 22:46 36.81308 30.79814 33128 ft 487 kts 182°
2026-05-06 22:46 36.74573 30.80055 33124 ft 486 kts 182°
2026-05-06 22:47 36.67802 30.80290 33120 ft 486 kts 182°
2026-05-06 22:47 36.61031 30.80524 33115 ft 486 kts 182°
2026-05-06 22:48 36.54268 30.80757 33109 ft 486 kts 182°
2026-05-06 22:48 36.47550 30.80988 33106 ft 485 kts 182°
2026-05-06 22:49 36.40796 30.81219 33105 ft 485 kts 182°
2026-05-06 22:49 36.34063 30.81444 33102 ft 484 kts 182°
2026-05-06 22:50 36.27301 30.81670 33097 ft 484 kts 182°
2026-05-06 22:50 36.20548 30.81895 33103 ft 484 kts 182°
2026-05-06 22:51 36.13855 30.82119 33105 ft 484 kts 183°
2026-05-06 22:51 36.07132 30.82342 33102 ft 483 kts 183°
2026-05-06 22:52 36.00432 30.82700 33100 ft 484 kts 181°
2026-05-06 22:52 35.93703 30.83105 33101 ft 483 kts 182°
2026-05-06 22:53 35.86978 30.83504 33094 ft 483 kts 182°
2026-05-06 22:53 35.80285 30.83900 33096 ft 483 kts 182°
2026-05-06 22:54 35.73569 30.84297 33098 ft 482 kts 182°
2026-05-06 22:54 35.66887 30.84691 33103 ft 482 kts 182°
2026-05-06 22:55 35.60178 30.85023 33096 ft 481 kts 184°
2026-05-06 22:55 35.53464 30.85242 33108 ft 481 kts 183°
2026-05-06 22:56 35.46797 30.85473 33106 ft 481 kts 183°
2026-05-06 22:56 35.40095 30.85705 33106 ft 481 kts 184°
2026-05-06 22:57 35.33372 30.85937 33106 ft 481 kts 184°
2026-05-06 22:57 35.26700 30.86168 33108 ft 481 kts 184°
2026-05-06 22:58 35.20024 30.86398 33101 ft 481 kts 184°
2026-05-06 22:58 35.13330 30.86622 33099 ft 481 kts 184°
2026-05-06 22:59 35.06656 30.86844 33098 ft 481 kts 184°
2026-05-06 22:59 34.99943 30.87067 33099 ft 481 kts 184°
2026-05-06 23:00 34.93242 30.87290 33102 ft 481 kts 184°
2026-05-06 23:00 34.87668 30.87475 33102 ft 481 kts 184°
2026-05-06 23:01 34.80955 30.87697 33101 ft 481 kts 184°
2026-05-06 23:01 34.74287 30.87917 33102 ft 481 kts 184°
2026-05-06 23:02 34.67592 30.88138 33096 ft 481 kts 184°
2026-05-06 23:02 34.60882 30.88388 33098 ft 482 kts 183°
2026-05-06 23:03 34.54207 30.88722 33092 ft 482 kts 183°
2026-05-06 23:03 34.47506 30.89038 33170 ft 481 kts 183°
2026-05-06 23:04 34.40813 30.89864 33130 ft 483 kts 181°
2026-05-06 23:04 34.34191 30.89791 33096 ft 480 kts 184°
2026-05-06 23:05 34.27491 30.90025 33101 ft 481 kts 184°
2026-05-06 23:05 34.20825 30.90370 33097 ft 482 kts 183°
2026-05-06 23:06 34.14128 30.90740 33099 ft 482 kts 183°
2026-05-06 23:06 34.07434 30.91109 33101 ft 481 kts 183°
2026-05-06 23:07 34.00750 30.91476 33101 ft 482 kts 183°
2026-05-06 23:07 33.94045 30.91807 33097 ft 481 kts 184°
2026-05-06 23:08 33.87387 30.92053 33096 ft 481 kts 184°
2026-05-06 23:08 33.80698 30.92309 33096 ft 481 kts 184°
2026-05-06 23:09 33.74007 30.92566 33098 ft 480 kts 184°
2026-05-06 23:09 33.67300 30.92823 33103 ft 480 kts 184°
2026-05-06 23:10 33.60660 30.93077 33097 ft 480 kts 184°
2026-05-06 23:10 33.53976 30.93332 33091 ft 480 kts 184°
2026-05-06 23:11 33.47305 30.93586 33093 ft 480 kts 184°
2026-05-06 23:11 33.40615 30.93841 33103 ft 479 kts 184°
2026-05-06 23:12 33.33975 30.94093 33103 ft 479 kts 184°
2026-05-06 23:12 33.27303 30.94346 33101 ft 479 kts 184°
2026-05-06 23:13 33.20672 30.94598 33105 ft 479 kts 184°
2026-05-06 23:13 33.14000 30.94850 33100 ft 478 kts 184°
2026-05-06 23:14 33.07370 30.95374 33107 ft 481 kts 179°
2026-05-06 23:14 33.00686 30.96157 33107 ft 480 kts 180°
2026-05-06 23:15 32.94012 30.96899 33095 ft 480 kts 180°
2026-05-06 23:15 32.87411 30.97630 33100 ft 480 kts 180°
2026-05-06 23:16 32.80737 30.98367 33104 ft 479 kts 180°
2026-05-06 23:16 32.74078 30.99101 33103 ft 479 kts 180°
2026-05-06 23:17 32.67469 30.99828 33101 ft 478 kts 180°
2026-05-06 23:17 32.60865 31.00555 33104 ft 478 kts 180°
2026-05-06 23:18 32.54238 31.01282 33109 ft 478 kts 180°
2026-05-06 23:18 32.47598 31.02010 33101 ft 477 kts 180°
2026-05-06 23:19 32.41032 31.02729 33105 ft 473 kts 180°
2026-05-06 23:19 32.34531 31.03439 33108 ft 469 kts 180°
2026-05-06 23:19 32.31270 31.03795 33370 ft 469 kts 180°
2026-05-06 23:20 32.28004 31.04151 33648 ft 469 kts 180°
2026-05-06 23:20 32.24782 31.04503 33923 ft 468 kts 179°
2026-05-06 23:20 32.21539 31.04856 34197 ft 467 kts 179°
2026-05-06 23:20 32.18301 31.05209 34441 ft 466 kts 180°
2026-05-06 23:21 32.15071 31.05560 34697 ft 465 kts 179°
2026-05-06 23:21 32.11860 31.05893 34899 ft 461 kts 178°
2026-05-06 23:21 32.08668 31.06247 35110 ft 460 kts 177°
2026-05-06 23:22 32.02359 31.06942 35132 ft 452 kts 178°
2026-05-06 23:22 31.96129 31.07611 35096 ft 451 kts 177°
2026-05-06 23:23 31.89880 31.08284 35100 ft 451 kts 177°
2026-05-06 23:23 31.83614 31.08958 35100 ft 451 kts 177°
2026-05-06 23:24 31.77395 31.09626 35100 ft 450 kts 177°
2026-05-06 23:24 31.71157 31.10296 35098 ft 450 kts 177°
2026-05-06 23:25 31.64908 31.10965 35097 ft 450 kts 177°
2026-05-06 23:25 31.58705 31.11628 35098 ft 450 kts 177°
2026-05-06 23:26 31.52463 31.12382 35092 ft 451 kts 173°
2026-05-06 23:26 31.46272 31.13581 35100 ft 451 kts 174°
2026-05-06 23:27 31.40058 31.14725 35095 ft 451 kts 174°
2026-05-06 23:27 31.33886 31.15853 35097 ft 451 kts 174°
2026-05-06 23:28 31.27670 31.16988 35094 ft 451 kts 174°
2026-05-06 23:28 31.21451 31.18140 35095 ft 451 kts 174°
2026-05-06 23:29 31.15267 31.19293 35099 ft 451 kts 174°
2026-05-06 23:29 31.09095 31.20442 35095 ft 451 kts 174°
2026-05-06 23:30 31.02892 31.21595 35092 ft 451 kts 174°
2026-05-06 23:30 30.96695 31.22746 35092 ft 451 kts 174°
2026-05-06 23:31 30.90520 31.23891 35093 ft 450 kts 174°
2026-05-06 23:31 30.84323 31.25039 35089 ft 450 kts 174°
2026-05-06 23:32 30.78153 31.26179 35090 ft 450 kts 174°
2026-05-06 23:32 30.71964 31.27323 35092 ft 450 kts 174°
2026-05-06 23:33 30.65805 31.28459 35091 ft 450 kts 174°
2026-05-06 23:33 30.59605 31.29601 35094 ft 450 kts 174°
2026-05-06 23:34 30.53420 31.30739 35091 ft 450 kts 174°
2026-05-06 23:34 30.47280 31.31868 35088 ft 449 kts 174°
2026-05-06 23:35 30.41083 31.33007 35088 ft 449 kts 173°
2026-05-06 23:35 30.34893 31.34144 35074 ft 449 kts 173°
2026-05-06 23:36 30.28742 31.35272 35078 ft 449 kts 174°
2026-05-06 23:36 30.22588 31.36400 35074 ft 449 kts 173°
2026-05-06 23:37 30.16396 31.37533 35073 ft 449 kts 174°
2026-05-06 23:37 30.10254 31.38658 35081 ft 449 kts 172°
2026-05-06 23:38 30.04181 31.40532 35073 ft 451 kts 167°
2026-05-06 23:38 29.98166 31.42520 35082 ft 451 kts 166°
2026-05-06 23:39 29.92120 31.44525 35080 ft 451 kts 166°
2026-05-06 23:39 29.86073 31.46529 35075 ft 451 kts 166°
2026-05-06 23:40 29.80065 31.48517 35072 ft 451 kts 166°
2026-05-06 23:40 29.74030 31.50512 35073 ft 451 kts 167°
2026-05-06 23:41 29.67983 31.52501 35075 ft 451 kts 167°
2026-05-06 23:41 29.61972 31.54470 35063 ft 451 kts 167°
2026-05-06 23:42 29.55963 31.56437 35057 ft 451 kts 167°
2026-05-06 23:42 29.49910 31.58416 35059 ft 451 kts 167°
2026-05-06 23:43 29.43909 31.60375 35059 ft 451 kts 167°
2026-05-06 23:43 29.37876 31.62342 35059 ft 451 kts 167°
2026-05-06 23:44 29.31825 31.64313 35056 ft 451 kts 167°
2026-05-06 23:44 29.25825 31.66264 35058 ft 450 kts 167°
2026-05-06 23:45 29.19786 31.68226 35054 ft 451 kts 167°
2026-05-06 23:45 29.13749 31.70185 35053 ft 450 kts 167°
2026-05-06 23:46 29.07737 31.72133 35050 ft 450 kts 167°
2026-05-06 23:46 29.01687 31.74092 35049 ft 450 kts 167°
2026-05-06 23:47 28.95689 31.76012 35045 ft 450 kts 168°
2026-05-06 23:47 28.89646 31.77935 35047 ft 450 kts 168°
2026-05-06 23:48 28.83626 31.79849 35048 ft 449 kts 168°
2026-05-06 23:48 28.77627 31.81755 35045 ft 449 kts 168°
2026-05-06 23:49 28.71592 31.83669 35046 ft 448 kts 168°
2026-05-06 23:49 28.66598 31.85252 35046 ft 448 kts 168°
2026-05-06 23:50 28.59591 31.87470 35051 ft 448 kts 169°
2026-05-06 23:50 28.51580 31.90002 35048 ft 447 kts 169°
2026-05-06 23:51 28.45620 31.91883 35049 ft 446 kts 169°
2026-05-06 23:51 28.39638 31.93769 35052 ft 445 kts 169°
2026-05-06 23:52 28.33663 31.95650 35045 ft 445 kts 169°
2026-05-06 23:52 28.27724 31.97518 35049 ft 444 kts 169°
2026-05-06 23:53 28.21762 31.99391 35048 ft 443 kts 170°
2026-05-06 23:53 28.15843 32.01249 35052 ft 443 kts 170°
2026-05-06 23:54 28.09905 32.03110 35050 ft 442 kts 170°
2026-05-06 23:54 28.03993 32.04963 35046 ft 441 kts 170°
2026-05-06 23:55 27.98058 32.06867 35051 ft 441 kts 170°
2026-05-06 23:55 27.92170 32.08751 35053 ft 441 kts 170°
2026-05-06 23:56 27.86304 32.10625 35055 ft 440 kts 170°
2026-05-06 23:56 27.80400 32.12509 35051 ft 440 kts 170°
2026-05-06 23:57 27.74531 32.14380 35048 ft 439 kts 171°
2026-05-06 23:57 27.68642 32.16256 35048 ft 439 kts 171°
2026-05-06 23:58 27.62747 32.18130 35051 ft 440 kts 171°
2026-05-06 23:58 27.56880 32.19994 35043 ft 439 kts 171°
2026-05-06 23:59 27.50970 32.21870 35046 ft 440 kts 171°
2026-05-06 23:59 27.45106 32.23729 35047 ft 440 kts 171°
2026-05-07 00:00 27.39197 32.25600 35043 ft 441 kts 171°
2026-05-07 00:00 27.33280 32.27493 35038 ft 444 kts 167°
2026-05-07 00:01 27.30499 32.28987 35040 ft 455 kts 152°
2026-05-07 00:01 27.28073 32.31341 35040 ft 468 kts 137°
2026-05-07 00:01 27.23821 32.37002 35036 ft 474 kts 136°
2026-05-07 00:02 27.19600 32.42699 35035 ft 474 kts 136°
2026-05-07 00:02 27.15414 32.48381 35036 ft 474 kts 135°
2026-05-07 00:03 27.11200 32.54097 35021 ft 474 kts 136°
2026-05-07 00:03 27.07006 32.59778 35025 ft 474 kts 136°
2026-05-07 00:04 27.02788 32.65486 35028 ft 474 kts 136°
2026-05-07 00:04 26.98592 32.71155 35020 ft 474 kts 136°
2026-05-07 00:05 26.94378 32.76841 35009 ft 474 kts 136°
2026-05-07 00:05 26.90164 32.82520 35002 ft 474 kts 136°
2026-05-07 00:06 26.85945 32.88199 35004 ft 474 kts 136°
2026-05-07 00:06 26.81741 32.93850 35000 ft 474 kts 136°
2026-05-07 00:07 26.77513 32.99526 34994 ft 474 kts 136°
2026-05-07 00:07 26.73314 33.05157 34989 ft 473 kts 136°
2026-05-07 00:08 26.69079 33.10828 34991 ft 473 kts 136°
2026-05-07 00:08 26.64870 33.16456 34986 ft 473 kts 136°
2026-05-07 00:09 26.60636 33.22112 34982 ft 473 kts 137°
2026-05-07 00:09 26.56399 33.27765 34982 ft 473 kts 137°
2026-05-07 00:10 26.52194 33.33367 34981 ft 473 kts 137°
2026-05-07 00:10 26.47950 33.39018 34985 ft 473 kts 137°
2026-05-07 00:11 26.43740 33.44612 34978 ft 473 kts 137°
2026-05-07 00:11 26.39512 33.50224 34971 ft 473 kts 137°
2026-05-07 00:12 26.35268 33.55852 34973 ft 473 kts 137°
2026-05-07 00:12 26.31031 33.61462 34977 ft 473 kts 137°
2026-05-07 00:13 26.26812 33.67043 34971 ft 473 kts 137°
2026-05-07 00:13 26.22559 33.72661 34970 ft 473 kts 137°
2026-05-07 00:14 26.18325 33.78248 34970 ft 473 kts 137°
2026-05-07 00:14 26.14066 33.83859 34967 ft 474 kts 137°
2026-05-07 00:15 26.09827 33.89440 34964 ft 474 kts 137°
2026-05-07 00:15 26.05573 33.95030 34963 ft 473 kts 137°
2026-05-07 00:16 26.01301 34.00641 34956 ft 474 kts 137°
2026-05-07 00:16 25.97058 34.06203 34957 ft 474 kts 137°
2026-05-07 00:17 25.92791 34.11793 34967 ft 474 kts 137°
2026-05-07 00:17 25.88513 34.17389 34959 ft 474 kts 137°
2026-05-07 00:18 25.84265 34.22940 34956 ft 474 kts 137°
2026-05-07 00:18 25.79987 34.28525 34958 ft 474 kts 137°
2026-05-07 00:19 25.75729 34.34077 34953 ft 474 kts 137°
2026-05-07 00:19 25.71444 34.39656 34959 ft 474 kts 137°
2026-05-07 00:20 25.67193 34.45185 34962 ft 474 kts 137°
2026-05-07 00:20 25.62903 34.50759 34962 ft 474 kts 137°
2026-05-07 00:21 25.58628 34.56277 34959 ft 471 kts 141°
2026-05-07 00:21 25.53953 34.61323 34965 ft 469 kts 143°
2026-05-07 00:22 25.49312 34.66403 34936 ft 469 kts 142°
2026-05-07 00:22 25.44691 34.71479 34935 ft 469 kts 142°
2026-05-07 00:23 25.40045 34.76577 34933 ft 470 kts 142°
2026-05-07 00:23 25.35425 34.81643 34935 ft 470 kts 142°
2026-05-07 00:24 25.30771 34.86740 34928 ft 470 kts 143°
2026-05-07 00:24 25.26147 34.91797 34921 ft 470 kts 143°
2026-05-07 00:25 25.21487 34.96889 34922 ft 470 kts 142°
2026-05-07 00:25 25.16830 35.01969 34919 ft 470 kts 143°
2026-05-07 00:26 25.12158 35.07064 34918 ft 470 kts 143°
2026-05-07 00:26 25.07515 35.12120 34913 ft 470 kts 142°
2026-05-07 00:27 25.02827 35.17166 34905 ft 470 kts 143°
2026-05-07 00:27 24.98169 35.22170 34915 ft 470 kts 143°
2026-05-07 00:28 24.93483 35.27200 34906 ft 470 kts 143°
2026-05-07 00:28 24.88797 35.32225 34905 ft 469 kts 143°
2026-05-07 00:29 24.84140 35.37213 34904 ft 469 kts 143°
2026-05-07 00:30 24.74781 35.47220 34904 ft 469 kts 143°
2026-05-07 00:30 24.70096 35.52221 34898 ft 469 kts 143°
2026-05-07 00:31 24.65394 35.57235 34900 ft 469 kts 143°
2026-05-07 00:31 24.60695 35.62240 34899 ft 470 kts 143°
2026-05-07 00:32 24.56023 35.67210 34898 ft 470 kts 143°
2026-05-07 00:32 24.51311 35.72218 34897 ft 470 kts 143°
2026-05-07 00:33 24.46603 35.77216 34895 ft 470 kts 143°
2026-05-07 00:33 24.41930 35.82172 34895 ft 470 kts 143°
2026-05-07 00:34 24.37206 35.87177 34895 ft 470 kts 143°
2026-05-07 00:34 24.32503 35.92152 34892 ft 470 kts 143°
2026-05-07 00:35 24.27823 35.97099 34893 ft 470 kts 143°
2026-05-07 00:35 24.23109 36.02076 34891 ft 470 kts 143°
2026-05-07 00:36 24.18389 36.07054 34901 ft 470 kts 143°
2026-05-07 00:36 24.13697 36.11998 34892 ft 470 kts 143°
2026-05-07 00:37 24.08981 36.16961 34891 ft 470 kts 143°
2026-05-07 00:37 24.05050 36.21094 34888 ft 470 kts 143°
2026-05-07 00:38 24.00323 36.26059 34884 ft 470 kts 143°
2026-05-07 00:38 23.95604 36.31010 34881 ft 470 kts 143°
2026-05-07 00:39 23.90910 36.35930 34882 ft 470 kts 143°
2026-05-07 00:39 23.86175 36.40887 34883 ft 470 kts 143°
2026-05-07 00:40 23.81473 36.45804 34880 ft 470 kts 144°
2026-05-07 00:40 23.76744 36.50747 34875 ft 470 kts 144°
2026-05-07 00:41 23.72028 36.55668 34875 ft 470 kts 144°
2026-05-07 00:41 23.67297 36.60601 34875 ft 470 kts 144°
2026-05-07 00:42 23.62563 36.65531 34877 ft 469 kts 144°
2026-05-07 00:42 23.57854 36.70431 34874 ft 469 kts 144°
2026-05-07 00:43 23.53126 36.75344 34868 ft 469 kts 144°
2026-05-07 00:43 23.48430 36.80220 34867 ft 469 kts 144°
2026-05-07 00:44 23.43696 36.85130 34867 ft 469 kts 144°
2026-05-07 00:44 23.38965 36.90031 34865 ft 469 kts 144°
2026-05-07 00:45 23.34260 36.94901 34867 ft 469 kts 144°
2026-05-07 00:45 23.29530 36.99792 34864 ft 469 kts 144°
2026-05-07 00:46 23.24796 37.04681 34861 ft 469 kts 144°
2026-05-07 00:46 23.20058 37.09570 34860 ft 469 kts 144°
2026-05-07 00:47 23.15350 37.14422 34856 ft 469 kts 144°
2026-05-07 00:47 23.10613 37.19299 34857 ft 468 kts 144°
2026-05-07 00:48 23.05899 37.24150 34857 ft 468 kts 144°
2026-05-07 00:48 23.01160 37.29018 34856 ft 468 kts 144°
2026-05-07 00:49 22.96421 37.33885 34853 ft 468 kts 144°
2026-05-07 00:49 22.91700 37.38727 34845 ft 468 kts 145°
2026-05-07 00:50 22.86987 37.43557 34849 ft 468 kts 145°
2026-05-07 00:50 22.82237 37.48419 34848 ft 468 kts 145°
2026-05-07 00:51 22.77527 37.53235 34846 ft 467 kts 145°
2026-05-07 00:51 22.73263 37.58662 34864 ft 479 kts 134°
2026-05-07 00:52 22.71204 37.61474 34838 ft 468 kts 144°
2026-05-07 00:52 22.68753 37.63619 34863 ft 455 kts 153°
2026-05-07 00:52 22.63591 37.67631 34862 ft 456 kts 153°
2026-05-07 00:53 22.58391 37.71563 34851 ft 455 kts 154°
2026-05-07 00:53 22.53166 37.75478 34841 ft 455 kts 154°
2026-05-07 00:54 22.47982 37.79355 34845 ft 455 kts 154°
2026-05-07 00:54 22.42764 37.83254 34841 ft 455 kts 154°
2026-05-07 00:55 22.37576 37.87126 34847 ft 455 kts 154°
2026-05-07 00:55 22.32359 37.91017 34844 ft 455 kts 154°
2026-05-07 00:56 22.27120 37.94921 34847 ft 456 kts 154°
2026-05-07 00:56 22.21902 37.98806 34844 ft 456 kts 154°
2026-05-07 00:57 22.16719 38.02662 34843 ft 456 kts 154°
2026-05-07 00:57 22.11487 38.06549 34839 ft 456 kts 154°
2026-05-07 00:58 22.06255 38.10433 34841 ft 456 kts 154°
2026-05-07 00:58 22.01014 38.14321 34838 ft 456 kts 154°
2026-05-07 00:59 21.93192 38.20117 34840 ft 457 kts 154°
2026-05-07 01:00 21.87964 38.23985 34838 ft 457 kts 154°
2026-05-07 01:00 21.82721 38.27863 34835 ft 457 kts 154°
2026-05-07 01:01 21.77470 38.31741 34833 ft 457 kts 154°
2026-05-07 01:01 21.72241 38.35601 34832 ft 458 kts 154°
2026-05-07 01:02 21.66981 38.39479 34832 ft 458 kts 154°
2026-05-07 01:02 21.61713 38.43360 34834 ft 458 kts 154°
2026-05-07 01:03 21.56473 38.47217 34833 ft 459 kts 154°
2026-05-07 01:03 21.51187 38.51104 34833 ft 459 kts 154°
2026-05-07 01:04 21.45942 38.54958 34832 ft 459 kts 154°
2026-05-07 01:04 21.40661 38.58835 34826 ft 460 kts 154°
2026-05-07 01:05 21.35368 38.62717 34817 ft 460 kts 154°
2026-05-07 01:05 21.30103 38.66575 34827 ft 460 kts 154°
2026-05-07 01:06 21.24793 38.70463 34819 ft 461 kts 154°
2026-05-07 01:06 21.19491 38.74341 34822 ft 461 kts 154°
2026-05-07 01:07 21.14211 38.78199 34820 ft 461 kts 154°
2026-05-07 01:07 21.08902 38.82076 34821 ft 461 kts 154°
2026-05-07 01:08 21.03621 38.85929 34820 ft 461 kts 154°
2026-05-07 01:08 20.98308 38.89802 34821 ft 461 kts 154°
2026-05-07 01:09 20.93000 38.93668 34816 ft 461 kts 154°
2026-05-07 01:09 20.87707 38.97519 34818 ft 461 kts 154°
2026-05-07 01:10 20.82418 39.01366 34813 ft 461 kts 154°
2026-05-07 01:10 20.77096 39.05232 34815 ft 461 kts 153°
2026-05-07 01:11 20.71640 39.08682 34802 ft 444 kts 170°
2026-05-07 01:11 20.68706 39.09321 34814 ft 427 kts 184°
2026-05-07 01:11 20.65732 39.09427 34809 ft 427 kts 186°
2026-05-07 01:12 20.59784 39.09434 34808 ft 426 kts 187°
2026-05-07 01:12 20.53884 39.09325 34809 ft 425 kts 188°
2026-05-07 01:13 20.48006 39.09183 34809 ft 425 kts 188°
2026-05-07 01:13 20.42070 39.09034 34811 ft 426 kts 188°
2026-05-07 01:14 20.36150 39.08885 34813 ft 426 kts 188°
2026-05-07 01:14 20.30229 39.08736 34812 ft 426 kts 188°
2026-05-07 01:15 20.24292 39.08588 34811 ft 426 kts 188°
2026-05-07 01:15 20.18352 39.08439 34811 ft 426 kts 188°
2026-05-07 01:16 20.12428 39.08290 34812 ft 427 kts 188°
2026-05-07 01:16 20.06500 39.08142 34810 ft 427 kts 188°
2026-05-07 01:17 20.00569 39.07993 34812 ft 427 kts 188°
2026-05-07 01:17 19.94612 39.07845 34812 ft 427 kts 187°
2026-05-07 01:18 19.88687 39.07697 34811 ft 427 kts 187°
2026-05-07 01:18 19.82733 39.07548 34810 ft 427 kts 187°
2026-05-07 01:19 19.76778 39.07400 34811 ft 427 kts 187°
2026-05-07 01:19 19.70885 39.07253 34809 ft 427 kts 187°
2026-05-07 01:20 19.64908 39.07104 34811 ft 427 kts 187°
2026-05-07 01:20 19.58947 39.06956 34813 ft 427 kts 187°
2026-05-07 01:21 19.53034 39.06809 34814 ft 427 kts 187°
2026-05-07 01:21 19.47080 39.06661 34817 ft 427 kts 187°
2026-05-07 01:22 19.41123 39.06513 34818 ft 427 kts 187°
2026-05-07 01:22 19.35214 39.06366 34817 ft 427 kts 187°
2026-05-07 01:23 19.29235 39.06219 34816 ft 427 kts 187°
2026-05-07 01:23 19.23321 39.06072 34820 ft 428 kts 187°
2026-05-07 01:24 19.17374 39.05925 34819 ft 428 kts 187°
2026-05-07 01:24 19.11429 39.05714 34820 ft 426 kts 189°
2026-05-07 01:25 19.05504 39.05372 34821 ft 426 kts 188°
2026-05-07 01:25 19.00575 39.05099 34820 ft 426 kts 188°
2026-05-07 01:26 18.94641 39.04771 34824 ft 426 kts 188°
2026-05-07 01:26 18.88706 39.04444 34823 ft 426 kts 188°
2026-05-07 01:27 18.82773 39.04117 34820 ft 426 kts 188°
2026-05-07 01:27 18.76871 39.03792 34824 ft 426 kts 188°
2026-05-07 01:28 18.70928 39.03466 34821 ft 426 kts 188°
2026-05-07 01:28 18.65034 39.03142 34827 ft 427 kts 188°
2026-05-07 01:29 18.59092 39.02815 34825 ft 427 kts 188°
2026-05-07 01:29 18.53153 39.02490 34824 ft 427 kts 188°
2026-05-07 01:30 18.47215 39.02164 34824 ft 427 kts 188°
2026-05-07 01:30 18.41305 39.01840 34821 ft 427 kts 188°
2026-05-07 01:31 18.35369 39.01515 34821 ft 428 kts 188°
2026-05-07 01:31 18.29404 39.01189 34822 ft 428 kts 188°
2026-05-07 01:32 18.23460 39.00864 34821 ft 428 kts 187°
2026-05-07 01:32 18.17528 39.00544 34825 ft 429 kts 187°
2026-05-07 01:33 18.11541 39.00334 34824 ft 430 kts 186°
2026-05-07 01:33 18.05575 39.00118 34828 ft 430 kts 186°
2026-05-07 01:34 17.99623 38.99901 34825 ft 431 kts 186°
2026-05-07 01:34 17.93574 38.99680 34828 ft 431 kts 186°
2026-05-07 01:35 17.87602 38.99463 34826 ft 432 kts 186°
2026-05-07 01:35 17.81579 38.99245 34826 ft 432 kts 186°
2026-05-07 01:36 17.75544 38.99025 34830 ft 433 kts 186°
2026-05-07 01:36 17.69556 38.98807 34829 ft 433 kts 186°
2026-05-07 01:37 17.63531 38.98589 34828 ft 433 kts 186°
2026-05-07 01:37 17.57484 38.98370 34843 ft 434 kts 186°
2026-05-07 01:38 17.51486 38.98152 34832 ft 434 kts 186°
2026-05-07 01:38 17.45424 38.97933 34842 ft 434 kts 186°
2026-05-07 01:39 17.39426 38.97714 34831 ft 435 kts 186°
2026-05-07 01:39 17.33346 38.97491 34835 ft 435 kts 186°
2026-05-07 01:40 17.27330 38.97272 34832 ft 435 kts 186°
2026-05-07 01:40 17.21270 38.97050 34846 ft 435 kts 185°
2026-05-07 01:41 17.15183 38.96828 34837 ft 436 kts 185°
2026-05-07 01:41 17.09153 38.96609 34840 ft 436 kts 185°
2026-05-07 01:42 17.03078 38.96387 34842 ft 436 kts 185°
2026-05-07 01:42 16.97041 38.96167 34851 ft 437 kts 185°
2026-05-07 01:43 16.90950 38.95945 34842 ft 437 kts 185°
2026-05-07 01:43 16.84853 38.95723 34849 ft 437 kts 185°
2026-05-07 01:44 16.78794 38.95503 34846 ft 438 kts 185°
2026-05-07 01:44 16.72694 38.95282 34852 ft 438 kts 185°
2026-05-07 01:45 16.66573 38.95060 34850 ft 439 kts 185°
2026-05-07 01:45 16.60470 38.94838 34862 ft 439 kts 185°
2026-05-07 01:46 16.54385 38.94617 34857 ft 439 kts 185°
2026-05-07 01:46 16.48267 38.94396 34861 ft 440 kts 185°
2026-05-07 01:47 16.42173 38.94175 34866 ft 440 kts 185°
2026-05-07 01:47 16.36031 38.93953 34870 ft 440 kts 185°
2026-05-07 01:48 16.29921 38.93732 34865 ft 441 kts 185°
2026-05-07 01:48 16.23801 38.93511 34868 ft 441 kts 185°
2026-05-07 01:49 16.17613 38.93287 34874 ft 442 kts 185°
2026-05-07 01:49 16.11499 38.93066 34877 ft 442 kts 185°
2026-05-07 01:50 16.05320 38.92843 34881 ft 443 kts 185°
2026-05-07 01:50 15.99190 38.92622 34881 ft 443 kts 185°
2026-05-07 01:51 15.93015 38.92400 34890 ft 443 kts 185°
2026-05-07 01:51 15.86831 38.92177 34896 ft 444 kts 185°
2026-05-07 01:52 15.80697 38.91956 34898 ft 444 kts 185°
2026-05-07 01:52 15.74508 38.91733 34904 ft 444 kts 185°
2026-05-07 01:53 15.68350 38.91513 34903 ft 444 kts 184°
2026-05-07 01:53 15.62154 38.91290 34933 ft 446 kts 185°
2026-05-07 01:54 15.55990 38.91062 34923 ft 445 kts 185°
2026-05-07 01:54 15.49774 38.90846 34940 ft 446 kts 184°
2026-05-07 01:55 15.43587 38.90624 34947 ft 446 kts 184°
2026-05-07 01:55 15.37370 38.90401 34954 ft 446 kts 184°
2026-05-07 01:56 15.31156 38.90178 34959 ft 447 kts 184°
2026-05-07 01:56 15.24953 38.90123 34967 ft 448 kts 182°
2026-05-07 01:57 15.18698 38.90118 34967 ft 448 kts 182°
2026-05-07 01:57 15.12480 38.90108 34976 ft 448 kts 182°
2026-05-07 01:58 15.06223 38.90096 34979 ft 449 kts 182°
2026-05-07 01:58 15.00016 38.90086 34976 ft 449 kts 182°
2026-05-07 01:59 14.93743 38.90075 34977 ft 449 kts 182°
2026-05-07 01:59 14.87496 38.90064 34972 ft 449 kts 182°
2026-05-07 02:00 14.81279 38.90053 34972 ft 449 kts 182°
2026-05-07 02:00 14.75018 38.90042 34971 ft 449 kts 182°
2026-05-07 02:01 14.68786 38.90032 34963 ft 449 kts 182°
2026-05-07 02:01 14.62517 38.90021 34967 ft 450 kts 182°
2026-05-07 02:02 14.56229 38.90009 34968 ft 450 kts 182°
2026-05-07 02:02 14.49994 38.89990 34969 ft 450 kts 182°
2026-05-07 02:03 14.43720 38.89919 34972 ft 451 kts 182°
2026-05-07 02:03 14.37468 38.89853 34976 ft 451 kts 182°
2026-05-07 02:04 14.31178 38.89787 34970 ft 451 kts 182°
2026-05-07 02:04 14.24881 38.89721 34976 ft 452 kts 182°
2026-05-07 02:05 14.18627 38.89655 34974 ft 452 kts 182°
2026-05-07 02:05 14.12320 38.89589 34977 ft 452 kts 182°
2026-05-07 02:06 14.06051 38.89522 34975 ft 453 kts 182°
2026-05-07 02:06 13.99756 38.89413 34980 ft 453 kts 182°
2026-05-07 02:07 13.93458 38.89300 34981 ft 453 kts 182°
2026-05-07 02:07 13.83967 38.89129 34978 ft 454 kts 182°
2026-05-07 02:08 13.77672 38.89017 34977 ft 454 kts 182°
2026-05-07 02:08 13.71364 38.88904 34974 ft 454 kts 182°
2026-05-07 02:09 13.65059 38.88790 34969 ft 454 kts 182°
2026-05-07 02:09 13.58735 38.88677 34973 ft 454 kts 182°
2026-05-07 02:10 13.52408 38.88564 34966 ft 454 kts 182°
2026-05-07 02:10 13.46085 38.88451 34970 ft 454 kts 182°
2026-05-07 02:11 13.39812 38.88339 34967 ft 454 kts 182°
2026-05-07 02:11 13.33483 38.88226 34963 ft 454 kts 182°
2026-05-07 02:12 13.27167 38.88113 34958 ft 454 kts 182°
2026-05-07 02:12 13.21900 38.88019 34955 ft 454 kts 182°
2026-05-07 02:13 13.14524 38.87887 34958 ft 454 kts 182°
2026-05-07 02:13 13.09258 38.87793 34956 ft 454 kts 182°
2026-05-07 02:14 13.02960 38.87681 34954 ft 454 kts 182°
2026-05-07 02:14 12.96606 38.87567 34957 ft 454 kts 182°
2026-05-07 02:15 12.90309 38.87413 34955 ft 455 kts 183°
2026-05-07 02:15 12.83981 38.87238 34958 ft 454 kts 183°
2026-05-07 02:16 12.77687 38.87064 34963 ft 455 kts 183°
2026-05-07 02:16 12.71330 38.86887 34967 ft 455 kts 183°
2026-05-07 02:17 12.65032 38.86712 34982 ft 455 kts 183°
2026-05-07 02:17 12.58692 38.86537 34981 ft 455 kts 182°
2026-05-07 02:18 12.52386 38.86361 35002 ft 455 kts 182°
2026-05-07 02:18 12.46049 38.86184 35002 ft 455 kts 183°
2026-05-07 02:19 12.39697 38.85998 35011 ft 456 kts 183°
2026-05-07 02:19 12.33376 38.85832 34990 ft 455 kts 182°
2026-05-07 02:20 12.27065 38.85660 35003 ft 455 kts 182°
2026-05-07 02:20 12.20714 38.85484 35005 ft 455 kts 182°
2026-05-07 02:21 12.14381 38.85309 35015 ft 455 kts 182°
2026-05-07 02:21 12.08077 38.85135 35023 ft 455 kts 182°
2026-05-07 02:22 12.01739 38.84960 35015 ft 454 kts 182°
2026-05-07 02:22 11.95446 38.84786 35025 ft 455 kts 182°
2026-05-07 02:23 11.89114 38.84613 35027 ft 455 kts 182°
2026-05-07 02:23 11.82788 38.84432 35009 ft 455 kts 182°
2026-05-07 02:24 11.76492 38.84263 35031 ft 455 kts 182°
2026-05-07 02:24 11.70180 38.84090 35037 ft 454 kts 182°
2026-05-07 02:25 11.63839 38.83915 35023 ft 455 kts 182°
2026-05-07 02:25 11.57501 38.83735 35033 ft 454 kts 182°
2026-05-07 02:26 11.51177 38.83566 35020 ft 454 kts 182°
2026-05-07 02:26 11.44877 38.83393 35022 ft 454 kts 182°
2026-05-07 02:27 11.38549 38.83219 35022 ft 454 kts 182°
2026-05-07 02:27 11.32253 38.83045 35023 ft 454 kts 182°
2026-05-07 02:28 11.25909 38.82870 35020 ft 455 kts 182°
2026-05-07 02:28 11.19580 38.82697 35020 ft 455 kts 182°
2026-05-07 02:29 11.13282 38.82523 35029 ft 455 kts 182°
2026-05-07 02:29 11.06944 38.82349 35032 ft 455 kts 182°
2026-05-07 02:30 11.00610 38.82174 35049 ft 455 kts 182°
2026-05-07 02:30 10.94299 38.81991 35035 ft 455 kts 182°
2026-05-07 02:31 10.87955 38.81827 35028 ft 455 kts 182°
2026-05-07 02:31 10.81610 38.81653 35026 ft 456 kts 182°
2026-05-07 02:32 10.75292 38.81480 35017 ft 456 kts 182°
2026-05-07 02:32 10.68933 38.81306 35010 ft 456 kts 182°
2026-05-07 02:33 10.62618 38.81133 35005 ft 456 kts 182°
2026-05-07 02:33 10.56254 38.80958 34993 ft 457 kts 182°
2026-05-07 02:34 10.49891 38.80785 34988 ft 457 kts 182°
2026-05-07 02:34 10.43553 38.80611 34986 ft 457 kts 182°
2026-05-07 02:35 10.37166 38.80437 34983 ft 457 kts 182°
2026-05-07 02:35 10.30839 38.80264 34977 ft 458 kts 182°
2026-05-07 02:36 10.24467 38.80090 34978 ft 458 kts 182°
2026-05-07 02:36 10.18114 38.79916 34977 ft 458 kts 182°
2026-05-07 02:37 10.11737 38.79742 34978 ft 458 kts 182°
2026-05-07 02:37 10.05357 38.79568 34988 ft 458 kts 182°
2026-05-07 02:38 9.98974 38.79394 34997 ft 458 kts 182°
2026-05-07 02:38 9.92596 38.79221 35003 ft 458 kts 182°
2026-05-07 02:39 9.86246 38.79048 35008 ft 458 kts 182°
2026-05-07 02:39 9.79868 38.78874 35018 ft 457 kts 182°
2026-05-07 02:40 9.73559 38.78697 35026 ft 458 kts 182°
2026-05-07 02:40 9.67164 38.78528 35041 ft 458 kts 182°
2026-05-07 02:41 9.60789 38.78355 35048 ft 458 kts 182°
2026-05-07 02:41 9.54445 38.78184 35051 ft 457 kts 182°
2026-05-07 02:42 9.48089 38.78009 35075 ft 457 kts 182°
2026-05-07 02:42 9.41718 38.77837 35068 ft 457 kts 182°
2026-05-07 02:43 9.35346 38.77661 35082 ft 457 kts 182°
2026-05-07 02:43 9.28971 38.77490 35084 ft 457 kts 182°
2026-05-07 02:44 9.22631 38.77318 35072 ft 458 kts 182°
2026-05-07 02:44 9.16256 38.77145 35068 ft 457 kts 182°
2026-05-07 02:45 9.09886 38.76791 35051 ft 456 kts 193°
2026-05-07 02:45 9.03748 38.75256 35059 ft 457 kts 194°
2026-05-07 02:46 8.97569 38.73716 35062 ft 457 kts 194°
2026-05-07 02:46 8.91390 38.72155 35053 ft 457 kts 194°
2026-05-07 02:47 8.85224 38.70622 35035 ft 457 kts 194°
2026-05-07 02:47 8.79037 38.69072 35038 ft 458 kts 194°
2026-05-07 02:48 8.72845 38.67521 35036 ft 458 kts 194°
2026-05-07 02:48 8.66693 38.65981 35031 ft 457 kts 194°
2026-05-07 02:49 8.60504 38.64432 35031 ft 457 kts 194°
2026-05-07 02:49 8.54317 38.62883 35028 ft 457 kts 195°
2026-05-07 02:50 8.48167 38.61345 35030 ft 457 kts 195°
2026-05-07 02:50 8.41984 38.59799 35030 ft 457 kts 195°
2026-05-07 02:51 8.35814 38.58257 35027 ft 457 kts 195°
2026-05-07 02:51 8.29636 38.56712 35027 ft 456 kts 195°
2026-05-07 02:52 8.23499 38.55179 35024 ft 456 kts 195°
2026-05-07 02:52 8.17228 38.54457 35013 ft 457 kts 172°
2026-05-07 02:53 8.11122 38.56202 35011 ft 461 kts 163°
2026-05-07 02:53 8.05022 38.58201 35009 ft 461 kts 162°
2026-05-07 02:54 7.98916 38.60256 34996 ft 461 kts 162°
2026-05-07 02:54 7.92861 38.62300 34995 ft 461 kts 162°
2026-05-07 02:55 7.86770 38.64356 34993 ft 461 kts 162°
2026-05-07 02:55 7.80665 38.66417 34989 ft 461 kts 162°
2026-05-07 02:56 7.74601 38.68463 34994 ft 461 kts 162°
2026-05-07 02:56 7.68496 38.70522 34999 ft 461 kts 162°
2026-05-07 02:57 7.62435 38.72566 35001 ft 462 kts 162°
2026-05-07 02:57 7.56346 38.74618 35006 ft 462 kts 162°
2026-05-07 02:58 7.50250 38.76673 35017 ft 462 kts 162°
2026-05-07 02:58 7.44140 38.78731 35027 ft 462 kts 162°
2026-05-07 02:59 7.39060 38.80441 35038 ft 462 kts 162°
2026-05-07 02:59 7.31984 38.82824 35046 ft 462 kts 162°
2026-05-07 03:00 7.26862 38.84548 35055 ft 462 kts 162°
2026-05-07 03:00 7.20746 38.86606 35064 ft 463 kts 162°
2026-05-07 03:01 7.14665 38.88652 35070 ft 463 kts 162°
2026-05-07 03:01 7.08580 38.90699 35078 ft 463 kts 162°
2026-05-07 03:02 7.02445 38.92762 35086 ft 463 kts 162°
2026-05-07 03:02 6.96347 38.94811 35087 ft 463 kts 162°
2026-05-07 03:03 6.90194 38.96879 35083 ft 463 kts 162°
2026-05-07 03:03 6.84057 38.98913 35081 ft 464 kts 163°
2026-05-07 03:04 6.77980 39.00977 35079 ft 464 kts 162°
2026-05-07 03:04 6.71831 39.03046 35077 ft 464 kts 162°
2026-05-07 03:05 6.65740 39.05091 35069 ft 464 kts 162°
2026-05-07 03:05 6.59608 39.07149 35065 ft 464 kts 162°
2026-05-07 03:06 6.53523 39.09191 35069 ft 464 kts 162°
2026-05-07 03:06 6.47360 39.11257 35056 ft 464 kts 162°
2026-05-07 03:07 6.41267 39.13301 35048 ft 464 kts 162°
2026-05-07 03:07 6.35121 39.15361 35039 ft 464 kts 162°
2026-05-07 03:08 6.28989 39.17416 35041 ft 465 kts 162°
2026-05-07 03:08 6.22849 39.19474 35031 ft 465 kts 162°
2026-05-07 03:09 6.16684 39.21540 35032 ft 466 kts 162°
2026-05-07 03:09 6.10563 39.23590 35028 ft 466 kts 162°
2026-05-07 03:10 6.04395 39.25654 35023 ft 466 kts 162°
2026-05-07 03:10 5.98271 39.27701 35031 ft 466 kts 162°
2026-05-07 03:11 5.92087 39.29772 35017 ft 467 kts 162°
2026-05-07 03:11 5.85915 39.31839 35026 ft 468 kts 162°
2026-05-07 03:12 5.79739 39.33906 35014 ft 467 kts 162°
2026-05-07 03:12 5.73589 39.35962 35020 ft 468 kts 162°
2026-05-07 03:13 5.67396 39.38033 35014 ft 468 kts 162°
2026-05-07 03:13 5.61045 39.39443 35016 ft 467 kts 172°
2026-05-07 03:14 5.54655 39.40536 35013 ft 468 kts 172°
2026-05-07 03:15 5.45023 39.42161 35011 ft 468 kts 172°
2026-05-07 03:15 5.38592 39.43245 35009 ft 468 kts 172°
2026-05-07 03:16 5.32156 39.44330 35006 ft 468 kts 171°
2026-05-07 03:16 5.25750 39.45409 35007 ft 468 kts 171°
2026-05-07 03:17 5.19332 39.46491 35002 ft 469 kts 171°
2026-05-07 03:17 5.12909 39.47573 35004 ft 469 kts 171°
2026-05-07 03:18 5.06465 39.48658 34999 ft 469 kts 171°
2026-05-07 03:18 5.00056 39.49737 34996 ft 469 kts 171°
2026-05-07 03:19 4.93582 39.50827 34990 ft 469 kts 171°
2026-05-07 03:19 4.87167 39.51906 34991 ft 469 kts 171°
2026-05-07 03:20 4.80713 39.52992 34985 ft 469 kts 171°
2026-05-07 03:20 4.74309 39.54069 34988 ft 468 kts 171°
2026-05-07 03:21 4.67878 39.55151 34989 ft 468 kts 171°
2026-05-07 03:21 4.61449 39.56232 34987 ft 468 kts 171°
2026-05-07 03:22 4.55041 39.57309 34987 ft 468 kts 171°
2026-05-07 03:22 4.48612 39.58390 34990 ft 467 kts 171°
2026-05-07 03:23 4.42221 39.59465 34989 ft 467 kts 171°
2026-05-07 03:23 4.35794 39.60544 34994 ft 467 kts 171°
2026-05-07 03:24 4.29413 39.61617 34989 ft 467 kts 171°
2026-05-07 03:24 4.22991 39.62695 34992 ft 467 kts 171°
2026-05-07 03:25 4.16586 39.63771 34992 ft 467 kts 171°
2026-05-07 03:25 4.10180 39.64847 34992 ft 468 kts 171°
2026-05-07 03:26 4.03740 39.65928 34988 ft 468 kts 171°
2026-05-07 03:26 3.97359 39.67092 34990 ft 469 kts 169°
2026-05-07 03:27 3.90947 39.68307 34988 ft 469 kts 169°
2026-05-07 03:27 3.84501 39.69525 34985 ft 469 kts 169°
2026-05-07 03:28 3.78115 39.70731 34982 ft 469 kts 169°
2026-05-07 03:28 3.71684 39.71945 34983 ft 469 kts 169°
2026-05-07 03:29 3.65253 39.73159 34982 ft 469 kts 169°
2026-05-07 03:29 3.58869 39.74364 34980 ft 469 kts 169°
2026-05-07 03:30 3.52440 39.75577 34977 ft 469 kts 169°
2026-05-07 03:30 3.46041 39.76784 34978 ft 469 kts 169°
2026-05-07 03:31 3.39627 39.77994 34973 ft 469 kts 169°
2026-05-07 03:31 3.33190 39.79209 34972 ft 469 kts 169°
2026-05-07 03:32 3.26795 39.80414 34971 ft 469 kts 169°
2026-05-07 03:32 3.20401 39.81620 34968 ft 469 kts 169°
2026-05-07 03:33 3.13991 39.82829 34968 ft 469 kts 169°
2026-05-07 03:33 3.07559 39.84042 34966 ft 468 kts 169°
2026-05-07 03:34 3.01179 39.85244 34964 ft 469 kts 169°
2026-05-07 03:34 2.94745 39.86457 34966 ft 469 kts 169°
2026-05-07 03:35 2.88360 39.87660 34965 ft 469 kts 169°
2026-05-07 03:35 2.81940 39.88870 34963 ft 469 kts 169°
2026-05-07 03:36 2.75514 39.90081 34963 ft 469 kts 169°
2026-05-07 03:36 2.69133 39.91283 34961 ft 469 kts 169°
2026-05-07 03:37 2.62708 39.92493 34961 ft 469 kts 169°
2026-05-07 03:37 2.56274 39.93684 34959 ft 469 kts 170°
2026-05-07 03:38 2.49883 39.94820 34956 ft 469 kts 170°
2026-05-07 03:38 2.43443 39.95970 34955 ft 469 kts 170°
2026-05-07 03:39 2.37045 39.97112 34953 ft 469 kts 170°
2026-05-07 03:39 2.30597 39.98264 34954 ft 469 kts 171°
2026-05-07 03:40 2.24160 39.99413 34956 ft 469 kts 171°
2026-05-07 03:40 2.17778 40.00552 34953 ft 469 kts 171°
2026-05-07 03:41 2.11330 40.01703 34953 ft 469 kts 171°
2026-05-07 03:41 2.04960 40.02839 34941 ft 469 kts 171°
2026-05-07 03:42 1.98485 40.03995 34924 ft 470 kts 171°
2026-05-07 03:42 1.92041 40.05145 34907 ft 470 kts 171°
2026-05-07 03:43 1.85634 40.06288 34892 ft 470 kts 171°
2026-05-07 03:43 1.79190 40.07438 34884 ft 469 kts 171°
2026-05-07 03:44 1.72770 40.08032 34881 ft 465 kts 187°
2026-05-07 03:44 1.66278 40.07465 34883 ft 467 kts 186°
2026-05-07 03:45 1.59823 40.06898 34895 ft 467 kts 186°
2026-05-07 03:45 1.53339 40.06313 34906 ft 467 kts 186°
2026-05-07 03:46 1.47957 40.05827 34919 ft 466 kts 186°
2026-05-07 03:46 1.40431 40.05147 34937 ft 466 kts 186°
2026-05-07 03:47 1.35052 40.04661 34942 ft 466 kts 186°
2026-05-07 03:47 1.28590 40.04077 34938 ft 466 kts 186°
2026-05-07 03:48 1.22115 40.03492 34940 ft 466 kts 186°
2026-05-07 03:48 1.15695 40.02912 34938 ft 466 kts 186°
2026-05-07 03:49 1.09219 40.02327 34939 ft 466 kts 186°
2026-05-07 03:49 1.02756 40.01743 34939 ft 465 kts 186°
2026-05-07 03:50 0.96337 40.01165 34938 ft 466 kts 186°
2026-05-07 03:50 0.89854 40.00585 34937 ft 465 kts 186°
2026-05-07 03:51 0.83424 40.00010 34940 ft 465 kts 186°
2026-05-07 03:51 0.76972 39.99432 34936 ft 465 kts 186°
2026-05-07 03:52 0.70521 39.98855 34937 ft 465 kts 186°
2026-05-07 03:52 0.64099 39.98281 34935 ft 465 kts 186°
2026-05-07 03:53 0.57648 39.97704 34936 ft 465 kts 186°
2026-05-07 03:53 0.51194 39.97126 34933 ft 465 kts 186°
2026-05-07 03:54 0.44799 39.96554 34932 ft 464 kts 186°
2026-05-07 03:54 0.38321 39.95974 34936 ft 464 kts 186°
2026-05-07 03:55 0.31899 39.95399 34938 ft 463 kts 186°
2026-05-07 03:55 0.25493 39.94826 34945 ft 463 kts 186°
2026-05-07 03:55 0.22297 39.94540 35127 ft 462 kts 186°
2026-05-07 03:56 0.19068 39.94252 35310 ft 463 kts 186°
2026-05-07 03:56 0.15887 39.93966 35490 ft 463 kts 186°
2026-05-07 03:56 0.12683 39.93680 35683 ft 462 kts 186°
2026-05-07 03:56 0.09476 39.93394 35878 ft 461 kts 186°
2026-05-07 03:57 0.06248 39.93105 36069 ft 461 kts 186°
2026-05-07 03:57 0.03086 39.92822 36257 ft 460 kts 186°
2026-05-07 03:57 -0.00113 39.92536 36452 ft 460 kts 186°
2026-05-07 03:57 -0.03298 39.92251 36644 ft 459 kts 186°
2026-05-07 03:58 -0.06486 39.91965 36847 ft 458 kts 186°
2026-05-07 03:58 -0.09665 39.91681 36953 ft 459 kts 186°
2026-05-07 03:58 -0.12812 39.91400 36937 ft 457 kts 186°
2026-05-07 03:59 -0.19135 39.90834 36944 ft 456 kts 186°
2026-05-07 03:59 -0.25463 39.90268 36945 ft 456 kts 186°
2026-05-07 04:00 -0.31756 39.89719 36943 ft 456 kts 185°
2026-05-07 04:00 -0.38091 39.89316 36948 ft 456 kts 185°
2026-05-07 04:01 -0.44443 39.88899 36948 ft 456 kts 185°
2026-05-07 04:01 -0.50744 39.88485 36947 ft 456 kts 185°
2026-05-07 04:02 -0.57098 39.88066 36946 ft 456 kts 185°
2026-05-07 04:02 -0.63440 39.87649 36945 ft 456 kts 185°
2026-05-07 04:03 -0.69743 39.87234 36949 ft 456 kts 185°
2026-05-07 04:03 -0.76108 39.86810 36950 ft 456 kts 185°
2026-05-07 04:04 -0.82423 39.86398 36951 ft 456 kts 185°
2026-05-07 04:04 -0.88763 39.85982 36949 ft 456 kts 185°
2026-05-07 04:05 -0.95091 39.85565 36950 ft 456 kts 185°
2026-05-07 04:05 -1.01392 39.85150 36948 ft 456 kts 185°
2026-05-07 04:06 -1.07734 39.84733 36951 ft 455 kts 185°
2026-05-07 04:06 -1.14067 39.84316 36948 ft 455 kts 185°
2026-05-07 04:07 -1.20378 39.83900 36947 ft 455 kts 185°
2026-05-07 04:07 -1.26655 39.83487 36946 ft 454 kts 185°
2026-05-07 04:08 -1.32951 39.83073 36949 ft 454 kts 185°
2026-05-07 04:08 -1.39252 39.82657 36946 ft 454 kts 185°
2026-05-07 04:09 -1.45587 39.82240 36945 ft 454 kts 185°
2026-05-07 04:09 -1.51858 39.81827 36942 ft 454 kts 185°
2026-05-07 04:10 -1.58174 39.81411 36939 ft 453 kts 185°
2026-05-07 04:10 -1.64480 39.80996 36940 ft 453 kts 185°
2026-05-07 04:11 -1.70751 39.80583 36939 ft 453 kts 185°
2026-05-07 04:11 -1.77054 39.80167 36938 ft 454 kts 185°
2026-05-07 04:12 -1.83364 39.79728 36940 ft 454 kts 185°
2026-05-07 04:12 -1.89624 39.79293 36937 ft 454 kts 185°
2026-05-07 04:13 -1.95944 39.78853 36940 ft 455 kts 185°
2026-05-07 04:13 -2.02275 39.78413 36936 ft 455 kts 185°
2026-05-07 04:14 -2.08549 39.77976 36936 ft 454 kts 185°
2026-05-07 04:14 -2.14825 39.77540 36936 ft 455 kts 184°
2026-05-07 04:15 -2.21168 39.77090 36938 ft 455 kts 184°
2026-05-07 04:15 -2.27517 39.76657 36934 ft 456 kts 184°
2026-05-07 04:16 -2.33855 39.76219 36906 ft 456 kts 184°
2026-05-07 04:16 -2.40158 39.75778 36935 ft 457 kts 184°
2026-05-07 04:17 -2.46504 39.75337 36932 ft 456 kts 184°
2026-05-07 04:17 -2.52811 39.74898 36933 ft 457 kts 184°
2026-05-07 04:18 -2.59187 39.74454 36933 ft 457 kts 184°
2026-05-07 04:18 -2.65489 39.73989 36936 ft 458 kts 184°
2026-05-07 04:19 -2.71877 39.73509 36933 ft 458 kts 184°
2026-05-07 04:19 -2.78213 39.73034 36932 ft 458 kts 184°
2026-05-07 04:20 -2.84585 39.72556 36932 ft 459 kts 184°
2026-05-07 04:20 -2.90936 39.72080 36927 ft 459 kts 184°
2026-05-07 04:21 -3.00529 39.71357 36937 ft 461 kts 184°
2026-05-07 04:21 -3.06892 39.70882 36936 ft 460 kts 184°
2026-05-07 04:22 -3.13292 39.70402 36938 ft 461 kts 184°
2026-05-07 04:22 -3.19690 39.69922 36938 ft 461 kts 184°
2026-05-07 04:23 -3.26063 39.69443 36936 ft 461 kts 184°
2026-05-07 04:23 -3.32489 39.68961 36934 ft 461 kts 184°
2026-05-07 04:24 -3.38902 39.68480 36935 ft 461 kts 184°
2026-05-07 04:24 -3.45281 39.68000 36935 ft 462 kts 184°
2026-05-07 04:25 -3.51660 39.67521 36937 ft 461 kts 184°
2026-05-07 04:25 -3.58084 39.67039 36933 ft 462 kts 184°
2026-05-07 04:26 -3.64445 39.66561 36932 ft 462 kts 184°
2026-05-07 04:26 -3.70895 39.66076 36930 ft 462 kts 184°
2026-05-07 04:27 -3.77317 39.65594 36929 ft 462 kts 184°
2026-05-07 04:27 -3.83697 39.65114 36920 ft 462 kts 183°
2026-05-07 04:28 -3.90120 39.64631 36914 ft 463 kts 183°
2026-05-07 04:28 -3.96525 39.63939 36914 ft 463 kts 189°
2026-05-07 04:29 -4.02882 39.62764 36910 ft 464 kts 190°
2026-05-07 04:29 -4.09198 39.61581 36916 ft 464 kts 189°
2026-05-07 04:30 -4.15567 39.60382 36914 ft 465 kts 190°
2026-05-07 04:30 -4.21902 39.59190 36919 ft 465 kts 190°
2026-05-07 04:31 -4.28277 39.57990 36923 ft 465 kts 190°
2026-05-07 04:31 -4.34627 39.56795 36931 ft 465 kts 190°
2026-05-07 04:32 -4.41005 39.55595 36934 ft 465 kts 190°
2026-05-07 04:32 -4.47364 39.54398 36933 ft 465 kts 190°
2026-05-07 04:33 -4.53712 39.53202 36589 ft 464 kts 190°
2026-05-07 04:33 -4.56891 39.52605 36335 ft 464 kts 190°
2026-05-07 04:33 -4.59004 39.52206 36176 ft 464 kts 190°
2026-05-07 04:34 -4.62178 39.51609 35932 ft 464 kts 190°
2026-05-07 04:34 -4.65363 39.51009 35682 ft 465 kts 190°
2026-05-07 04:34 -4.69574 39.50208 35367 ft 465 kts 192°
2026-05-07 04:34 -4.71684 39.49622 35192 ft 465 kts 198°
2026-05-07 04:35 -4.74728 39.48633 34966 ft 466 kts 197°
2026-05-07 04:35 -4.77879 39.47668 34727 ft 467 kts 196°
2026-05-07 04:35 -4.80955 39.46743 34501 ft 468 kts 196°
2026-05-07 04:35 -4.84083 39.45809 34266 ft 469 kts 196°
2026-05-07 04:36 -4.87219 39.44875 34038 ft 470 kts 196°
2026-05-07 04:36 -4.90350 39.43943 33789 ft 471 kts 196°
2026-05-07 04:36 -4.93500 39.43006 33524 ft 471 kts 196°
2026-05-07 04:36 -4.96652 39.42068 33263 ft 472 kts 196°
2026-05-07 04:37 -4.99809 39.41129 33012 ft 473 kts 196°
2026-05-07 04:37 -5.02967 39.40188 32762 ft 473 kts 196°
2026-05-07 04:37 -5.06087 39.39260 32519 ft 473 kts 196°
2026-05-07 04:37 -5.09230 39.38324 32168 ft 470 kts 196°
2026-05-07 04:38 -5.12360 39.37393 31401 ft 472 kts 196°
2026-05-07 04:38 -5.15520 39.36451 30864 ft 468 kts 196°
2026-05-07 04:38 -5.18595 39.35535 30405 ft 463 kts 196°
2026-05-07 04:38 -5.21693 39.34612 29857 ft 460 kts 196°
2026-05-07 04:39 -5.24758 39.33705 29313 ft 456 kts 196°
2026-05-07 04:39 -5.27793 39.32794 28759 ft 452 kts 196°
2026-05-07 04:39 -5.30799 39.31900 28268 ft 448 kts 196°
2026-05-07 04:39 -5.33777 39.31009 27737 ft 444 kts 196°
2026-05-07 04:40 -5.36722 39.30135 27288 ft 439 kts 195°
2026-05-07 04:40 -5.39608 39.29273 26772 ft 436 kts 195°
2026-05-07 04:40 -5.42506 39.28413 26341 ft 432 kts 195°
2026-05-07 04:40 -5.45348 39.27566 25851 ft 429 kts 195°
2026-05-07 04:41 -5.48225 39.26708 25447 ft 424 kts 195°
2026-05-07 04:41 -5.51061 39.25860 24963 ft 422 kts 195°
2026-05-07 04:41 -5.53814 39.25038 24606 ft 416 kts 195°
2026-05-07 04:41 -5.56590 39.24213 24275 ft 411 kts 195°
2026-05-07 04:42 -5.59311 39.23402 23980 ft 404 kts 195°
2026-05-07 04:42 -5.61993 39.22603 23688 ft 398 kts 195°
2026-05-07 04:42 -5.64638 39.21813 23409 ft 392 kts 195°
2026-05-07 04:42 -5.67220 39.21043 23098 ft 386 kts 195°
2026-05-07 04:43 -5.69776 39.20281 22665 ft 385 kts 195°
2026-05-07 04:43 -5.72339 39.19516 22276 ft 382 kts 195°
2026-05-07 04:43 -5.74889 39.18765 21879 ft 379 kts 193°
2026-05-07 04:43 -5.77489 39.18528 21498 ft 372 kts 173°
2026-05-07 04:44 -5.80036 39.18836 21050 ft 371 kts 173°
2026-05-07 04:44 -5.82561 39.19101 20691 ft 368 kts 173°
2026-05-07 04:44 -5.85127 39.19379 20278 ft 366 kts 172°
2026-05-07 04:44 -5.87656 39.19656 19931 ft 364 kts 172°
2026-05-07 04:45 -5.88506 39.19750 19805 ft 363 kts 172°
2026-05-07 04:45 -5.90299 39.19949 19542 ft 361 kts 172°
2026-05-07 04:45 -5.92795 39.20224 19183 ft 359 kts 173°
2026-05-07 04:46 -5.95277 39.20499 18826 ft 357 kts 172°
2026-05-07 04:46 -5.97736 39.20771 18470 ft 355 kts 173°
2026-05-07 04:46 -6.00169 39.21041 18110 ft 353 kts 173°
2026-05-07 04:46 -6.02631 39.21315 17706 ft 350 kts 173°
2026-05-07 04:47 -6.05049 39.21581 17333 ft 347 kts 173°
2026-05-07 04:47 -6.07422 39.21840 16938 ft 345 kts 173°
2026-05-07 04:47 -6.09798 39.22107 16598 ft 341 kts 173°
2026-05-07 04:47 -6.12158 39.22368 16213 ft 340 kts 173°
2026-05-07 04:48 -6.14494 39.22627 15851 ft 337 kts 173°
2026-05-07 04:48 -6.16823 39.22885 15385 ft 332 kts 173°
2026-05-07 04:48 -6.19081 39.23131 14745 ft 330 kts 173°
2026-05-07 04:48 -6.21354 39.23385 14157 ft 326 kts 173°
2026-05-07 04:49 -6.23599 39.23635 13576 ft 322 kts 173°
2026-05-07 04:49 -6.25818 39.23882 12922 ft 319 kts 173°
2026-05-07 04:49 -6.28026 39.24127 12311 ft 316 kts 173°
2026-05-07 04:49 -6.30181 39.24364 11697 ft 314 kts 173°
2026-05-07 04:50 -6.32346 39.24607 11092 ft 311 kts 173°
2026-05-07 04:50 -6.34502 39.24847 10488 ft 309 kts 173°
2026-05-07 04:50 -6.36633 39.25082 9910 ft 306 kts 173°
2026-05-07 04:50 -6.38739 39.25316 9272 ft 304 kts 172°
2026-05-07 04:51 -6.40772 39.25540 9093 ft 287 kts 173°
2026-05-07 04:51 -6.42703 39.25755 8894 ft 273 kts 173°
2026-05-07 04:51 -6.44560 39.25961 8602 ft 262 kts 172°
2026-05-07 04:51 -6.46353 39.26158 8189 ft 258 kts 173°
2026-05-07 04:52 -6.48131 39.26356 7737 ft 255 kts 172°
2026-05-07 04:52 -6.49875 39.26550 7273 ft 254 kts 172°
2026-05-07 04:52 -6.51623 39.26742 6823 ft 252 kts 173°
2026-05-07 04:52 -6.53356 39.26936 6396 ft 250 kts 172°
2026-05-07 04:53 -6.55080 39.27132 5974 ft 247 kts 172°
2026-05-07 04:53 -6.56780 39.27317 5496 ft 246 kts 173°
2026-05-07 04:53 -6.58480 39.27506 5068 ft 244 kts 172°
2026-05-07 04:53 -6.60123 39.27687 4634 ft 245 kts 173°
2026-05-07 04:54 -6.61821 39.27876 4420 ft 241 kts 173°
2026-05-07 04:54 -6.63495 39.28062 4106 ft 241 kts 172°
2026-05-07 04:54 -6.65108 39.28393 3795 ft 239 kts 154°
2026-05-07 04:54 -6.66437 39.29361 3513 ft 237 kts 137°
2026-05-07 04:55 -6.67651 39.30498 3228 ft 237 kts 136°
2026-05-07 04:55 -6.68836 39.31636 3031 ft 232 kts 136°
2026-05-07 04:55 -6.69966 39.32737 2946 ft 222 kts 135°
2026-05-07 04:55 -6.71048 39.33792 2899 ft 210 kts 138°
2026-05-07 04:56 -6.72323 39.34402 2752 ft 203 kts 173°
2026-05-07 04:56 -6.73706 39.34148 2461 ft 205 kts 207°
2026-05-07 04:56 -6.74792 39.33227 2389 ft 204 kts 223°
2026-05-07 04:56 -6.75752 39.32276 2378 ft 187 kts 222°
2026-05-07 04:57 -6.76666 39.31378 2343 ft 178 kts 221°
2026-05-07 04:57 -6.77523 39.30529 2315 ft 174 kts 222°
2026-05-07 04:57 -6.78380 39.29678 2306 ft 171 kts 221°
2026-05-07 04:57 -6.79237 39.28835 2333 ft 173 kts 222°
2026-05-07 04:58 -6.80089 39.27995 2200 ft 170 kts 221°
2026-05-07 04:58 -6.80913 39.27161 2020 ft 167 kts 223°
2026-05-07 04:58 -6.81704 39.26358 1910 ft 154 kts 223°
2026-05-07 04:58 -6.82436 39.25605 1641 ft 159 kts 223°
2026-05-07 04:59 -6.83204 39.24815 1416 ft 154 kts 222°
2026-05-07 04:59 -6.83959 39.24095 1113 ft 144 kts 221°
2026-05-07 04:59 -6.84672 39.23391 774 ft 150 kts 222°
2026-05-07 04:59 -6.85410 39.22656 541 ft 148 kts 224°
2026-05-07 05:00 -6.86140 39.21928 293 ft 149 kts 224°
2026-05-07 05:00 -6.86861 39.21209 183 ft 140 kts 225°
2026-05-07 05:00 -6.87418 39.20649 182 ft 92 kts 225°
2026-05-07 05:00 -6.87766 39.20302 181 ft 48 kts 226°
2026-05-07 05:01 -6.87916 39.20153 181 ft 24 kts 224°
2026-05-07 05:01 -6.88022 39.20047 182 ft 18 kts 225°
2026-05-07 05:01 -6.88072 39.19962 181 ft 14 kts 279°
2026-05-07 05:01 -6.88007 39.19900 181 ft 14 kts 347°
2026-05-07 05:02 -6.87915 39.19910 181 ft 14 kts 17°
2026-05-07 05:02 -6.87843 39.19972 180 ft 12 kts 46°
2026-05-07 05:02 -6.87789 39.20027 181 ft 11 kts 45°
2026-05-07 05:02 -6.87731 39.20086 181 ft 13 kts 45°
2026-05-07 05:03 -6.87661 39.20155 181 ft 15 kts 43°
2026-05-07 05:03 -6.87601 39.20221 181 ft 12 kts 48°
2026-05-07 05:03 -6.87540 39.20285 181 ft 12 kts 46°
2026-05-07 05:03 -6.87488 39.20340 181 ft 12 kts 46°
2026-05-07 05:04 -6.87424 39.20407 181 ft 15 kts 45°
2026-05-07 05:04 -6.87344 39.20485 181 ft 17 kts 43°
2026-05-07 05:04 -6.87256 39.20571 181 ft 16 kts 45°
2026-05-07 05:04 -6.87171 39.20655 181 ft 17 kts 44°
2026-05-07 05:05 -6.87100 39.20728 181 ft 15 kts 45°
2026-05-07 05:05 -6.87018 39.20809 182 ft 17 kts 44°
2026-05-07 05:05 -6.86931 39.20898 182 ft 19 kts 44°
2026-05-07 05:05 -6.86838 39.20992 182 ft 18 kts 45°
2026-05-07 05:06 -6.86752 39.21073 182 ft 15 kts 28°
2026-05-07 05:06 -6.86659 39.21082 182 ft 12 kts 18°
2026-05-07 05:06 -6.86598 39.21136 182 ft 13 kts 45°
2026-05-07 05:06 -6.86528 39.21206 182 ft 15 kts 45°
2026-05-07 05:07 -6.86477 39.21245 182 ft 5 kts
2026-05-07 05:07 -6.86469 39.21240 182 ft 1 kts 311°
2026-05-07 05:07 -6.86456 39.21222 182 ft 7 kts 305°
2026-05-07 05:07 -6.86433 39.21197 182 ft 3 kts 315°
2026-05-07 05:08 -6.86420 39.21183 175 ft 2 kts 313°
2026-05-07 05:08 -6.86419 39.21182 174 ft 0 kts 313°